Location: Newark
(23.3970°S, 47.6010°W)
Time: 00:41:02
(UTC+00:00)

Tiros 1 despin weight - Pass Details

Date: 22 February 2020
Orbit: 593 x 642 km, 48.2° (Epoch: 28 March)

Event Time Altitude Azimuth Distance (km) Brightness Sun altitude
Rises 12:21:33 0° 3° (N) 2,858 ? 44.6°
Reaches altitude 10° 12:25:51 10° 43° (NE) 1,980 ? 45.6°
Maximum altitude 12:26:47 11° 55° (NE) 1,948 ? 45.8°
Drops below altitude 10° 12:27:43 10° 66° (ENE) 1,991 ? 46.0°
Sets 12:32:06 0° 105° (ESE) 2,923 ? 47.0°
